SL-16 DEB

Satellite information

Favourite Embed

Satellite Type and Status

DEBRISIN ORBIT

Key statistics

Satellite SL-16 DEB at a glance.

Uptime

11882

Days in orbit

Revolutions

≈ 14.3

Per day

Orbit

LEO

Low Earth Orbit

Inclination

71.1

Latest

Satellite identification and parameters

Extended collection of information and parameters for SL-16 DEB.

Object identification

Identified? True

Debris? True

Object name: SL-16 DEB

International designator: 1992-093JL

Object number (NORAD): 27749

Object ID (CCSDS): 27749

Country: COMMONWEALTH OF INDEPENDENT STATES (CIS)

Current information (Y/N): Y

RCS size: SMALL

Orbital parameters

Period: 100.839 minutes

Inclination: 71.0988 deg

SMA: 7176.52 km

Apoapsis: 868.153 km

Periapsis: 728.617 km

RAAN: 254.943 deg

Eccentricy: 0.0097217

Argument of periapsis: 336.9207 deg

Mean anomaly: 175.237 deg

Mean motion: 14.28012159 rev/day

Mean motion (dot): 0.00001765 rev/day2

B* drag term: 0.00069461 1/REarth

Two-line elements (TLE)

Creation date: July 5, 2025, 5:45 p.m.

Reference frame: TEME

Reference center: EARTH

Epoch: July 5, 2025, 3:19 p.m. UTC

TLE line 0: 0 SL-16 DEB

TLE line 1: 1 27749U 92093JL 25186.63844325 .00001765 00000-0 69461-3 0 9997

TLE line 2: 2 27749 71.0988 254.9430 0097217 336.9207 175.2370 14.28012159244858

Live tracking on map

Real-time ground track for satellite SL-16 DEB.

In-orbit conjunctions

A list of the most updated potential collisions computed for object SL-16 DEB.

Target Orbit TCA Probability of collision Miss distance Type
CZ-4 DEB SSO 2025-04-14 12:58:39 0.0001136666 278.0 (m) DEBRIS
SCOUT X-4 R/B LEO 2025-03-16 21:15:09 0.0001827315 260.0 (m) ROCKET BODY
CZ-2D R/B LEO 2024-06-16 08:43:01 0.00147051 56.0 (m) ROCKET BODY

Associated space launch

Second generation ELING satellite

SL-16 DEB was lifted into orbit during the mission ‘Zenit-2 | Tselina-2 12’, on board a Zenit-2 space rocket.

The launch took place on Dec. 25, 1992, 5:56 a.m. from 45/1.

For more information about the launch, click the button.

Launch to space Zenit-2 | Tselina-2 12
Zenit-2 | Tselina-2 12

Agency: N/A

Status: Launch Successful

Launch date: Dec. 25, 1992, 5:56 a.m. UTC

Rocket: Zenit-2

Launch pad: 45/1

Location: Baikonur Cosmodrome, Republic of Kazakhstan

...

Latest news about this satellite

There are no fresh news available about this satellite. Check back as we update our databases every day.


Newsletter sign-up

Weekly statistics, charts and insights to help you stay on top of the space industry.